Location: Quaker Farms
(41.4276°N, 73.1557°W)
Time: 19:51:46
(UTC+00:00)

S-56A Canister/Altair - Pass Details

Date: 14 June 2021
Orbit: 631 x 2501 km, 38.9° (Epoch: 30 July)

Event Time Altitude Azimuth Distance (km) Brightness Sun altitude
Rises 11:33:28 0° 244° (WSW) 2,979 10.0 22.5°
Reaches altitude 10° 11:35:35 10° 240° (WSW) 2,150 9.4 22.9°
Maximum altitude 11:40:20 55° 163° (SSE) 990 8.5 23.8°
Drops below altitude 10° 11:46:52 10° 87° (E) 2,943 12.4 25.0°
Sets 11:50:14 0° 84° (E) 4,200 12.7 25.6°
